DW5978 Whyalla SA AU current weather conditions

sailwx.info

Wind from 115 at 6 knots gusting 8

Air temperature 21.7° C
Dewpoint 15.3° C

Last reported at 2014-Oct-25 02:36 UTC.
Time now 2014-Oct-25 03:42 UTC

Location: S 33°01' E 137°32'.
View on Google Maps.

See reports from other nearby stations

  
Tides and Currents Weather Stations Pressure Air Temp Water Temp Dewpoint Dewpoint Depression Visibility Wind Speed Wind Dir Waves Ship Positions
date/time (UTC)wind fromknots sea level pressurealtimeterstation pressurevisibilityair tempwater tempwave heightnotes
2014-Oct-25 02:36 115 6 gusting 8 21.7
2014-Oct-25 02:21 148 4 gusting 8 21.7
2014-Oct-25 02:06 140 2 gusting 7 21.1
2014-Oct-25 01:51 145 4 gusting 8 21.1
2014-Oct-25 01:36 122 3 gusting 8 20.6
2014-Oct-25 01:21 204 4 gusting 9 20.6
2014-Oct-25 01:06 156 4 gusting 8 20.6
2014-Oct-25 00:51 162 5 gusting 8 20.0
2014-Oct-25 00:36 122 4 gusting 7 20.0
2014-Oct-25 00:21 117 4 gusting 9 20.0
2014-Oct-25 00:06 143 5 gusting 8 19.4
2014-Oct-24 23:51 154 5 gusting 11 19.4
2014-Oct-24 23:36 134 4 gusting 10 19.4
2014-Oct-24 23:21 145 3 gusting 11 19.4
2014-Oct-24 23:06 150 4 gusting 9 18.9
2014-Oct-24 22:51 162 5 gusting 8 18.9
2014-Oct-24 22:36 119 5 gusting 8 18.9
2014-Oct-24 22:21 172 3 gusting 7 18.9
2014-Oct-24 22:07 138 4 gusting 6 18.3
2014-Oct-24 21:51 133 2 gusting 5 18.3
2014-Oct-24 21:36 139 2 gusting 5 17.8
2014-Oct-24 21:21 098 0 gusting 3 17.8
2014-Oct-24 21:07 022 0 gusting 1 17.2
2014-Oct-24 20:51 022 15.6
2014-Oct-24 20:36 022 14.4
2014-Oct-24 20:21 022 13.9
2014-Oct-24 20:05 022 13.9
2014-Oct-24 19:50 025 0 gusting 1 13.9
2014-Oct-24 19:35 255 13.9
2014-Oct-24 19:20 255 14.4
2014-Oct-24 19:05 255 15.0
2014-Oct-24 18:50 255 15.0
2014-Oct-24 18:35 255 15.6
2014-Oct-24 18:20 252 0 gusting 1 15.6
2014-Oct-24 18:05 255 15.6
2014-Oct-24 17:50 232 1 gusting 3 16.1
2014-Oct-24 17:35 205 1 gusting 6 16.1
2014-Oct-24 17:20 187 3 gusting 6 16.7
2014-Oct-24 17:05 204 0 gusting 5 16.7
2014-Oct-24 16:50 201 2 gusting 4 16.7
2014-Oct-24 16:35 221 0 gusting 4 16.7
2014-Oct-24 16:20 207 3 gusting 6 17.2
2014-Oct-24 16:05 235 1 gusting 5 17.2
2014-Oct-24 15:50 174 3 gusting 7 17.2
2014-Oct-24 15:35 201 3 gusting 8 17.2
2014-Oct-24 15:20 221 6 gusting 11 17.8
2014-Oct-24 15:05 174 3 gusting 8 17.8
2014-Oct-24 14:50 221 4 gusting 10 17.8
2014-Oct-24 14:20 204 2 gusting 6 18.3
2014-Oct-24 14:05 148 3 gusting 6 18.9
2014-Oct-24 13:49 188 2 gusting 4 18.9
2014-Oct-24 13:34 160 4 gusting 8 19.4
2014-Oct-24 13:19 238 2 gusting 7 20.0
2014-Oct-24 13:04 167 4 gusting 7 20.0
2014-Oct-24 12:49 210 4 gusting 9 20.6
2014-Oct-24 12:34 198 4 gusting 9 20.0
2014-Oct-24 12:19 210 3 gusting 7 20.6
2014-Oct-24 12:04 204 1 gusting 8 20.6
2014-Oct-24 11:49 216 3 gusting 6 21.1
2014-Oct-24 11:34 231 4 gusting 11 21.1
2014-Oct-24 11:19 194 1 gusting 7 21.7
2014-Oct-24 11:04 195 4 gusting 11 22.2
2014-Oct-24 10:49 165 6 gusting 9 23.3
2014-Oct-24 10:34 204 5 gusting 10 23.9
2014-Oct-24 10:19 160 4 gusting 10 23.9
2014-Oct-24 10:04 161 3 gusting 9 24.4
2014-Oct-24 09:49 207 6 gusting 11 24.4
2014-Oct-24 09:34 180 6 gusting 12 24.4
2014-Oct-24 09:19 201 7 gusting 14 24.4
2014-Oct-24 09:04 193 8 gusting 13 24.4
2014-Oct-24 08:49 193 6 gusting 11 25.0
2014-Oct-24 08:34 193 6 gusting 11 26.7
2014-Oct-24 08:19 191 5 gusting 13 27.2
2014-Oct-24 08:04 207 5 gusting 9 27.2
2014-Oct-24 07:49 148 3 gusting 6 28.3
2014-Oct-24 07:34 123 2 gusting 9 29.4
2014-Oct-24 07:19 122 3 gusting 6 29.4
2014-Oct-24 07:04 169 3 gusting 7 30.6
2014-Oct-24 06:49 148 4 gusting 7 31.7
2014-Oct-24 06:34 156 4 gusting 7 31.7
2014-Oct-24 06:19 123 4 gusting 6 32.2
2014-Oct-24 06:04 135 3 gusting 8 31.7
2014-Oct-24 05:54
2014-Oct-24 05:41
2014-Oct-24 05:28 128 5 gusting 10 31.7
2014-Oct-24 05:13 153 6 gusting 10 31.7
2014-Oct-24 04:58 122 6 gusting 13 32.2
2014-Oct-24 04:28 117 7 gusting 12 32.8
2014-Oct-24 04:13 103 5 gusting 11 32.8
2014-Oct-24 03:57 132 6 gusting 11 33.9
2014-Oct-24 03:42 061 6 gusting 10 33.3
2014-Oct-24 03:27 070 5 gusting 9 32.8
2014-Oct-24 03:12 123 4 gusting 8 32.8
2014-Oct-24 02:57 097 5 gusting 10 31.7
2014-Oct-24 02:42 123 5 gusting 8 31.7
2014-Oct-24 02:27 167 3 gusting 7 30.6
2014-Oct-24 02:12 114 4 gusting 8 30.6
2014-Oct-24 01:57 165 2 gusting 5 30.6
2014-Oct-24 01:42 057 1 gusting 3 29.4
2014-Oct-24 01:27 150 1 gusting 4 27.8
2014-Oct-24 01:12 112 3 gusting 6 26.7
2014-Oct-24 00:57 156 4 gusting 7 27.2
2014-Oct-24 00:42 156 5 gusting 9 30.6
2014-Oct-24 00:27 345 4 gusting 13 32.2
2014-Oct-24 00:12 330 6 gusting 12 32.2
2014-Oct-23 23:57 297 6 gusting 13 31.7
2014-Oct-23 23:42 347 6 30.0
2014-Oct-23 23:27 333 5 gusting 8 29.4
2014-Oct-23 23:12 312 5 gusting 10 28.3
2014-Oct-23 22:57 342 5 gusting 9 27.2
2014-Oct-23 22:42 336 6 gusting 11 26.1
2014-Oct-23 22:27 314 4 gusting 8 24.4
2014-Oct-23 22:11 335 3 gusting 6 22.2
2014-Oct-23 21:56 336 3 gusting 6 20.6
2014-Oct-23 21:41 296 3 gusting 5 18.9
2014-Oct-23 21:26 321 2 gusting 5 17.8
2014-Oct-23 21:11 294 1 gusting 5 16.7
2014-Oct-23 20:56 297 1 gusting 2 16.1
2014-Oct-23 20:41 263 1 gusting 3 16.1
2014-Oct-23 20:26 304 0 gusting 1 15.6
2014-Oct-23 20:11 311 15.6
2014-Oct-23 19:56 336 0 gusting 3 15.6
2014-Oct-23 19:41 321 4 gusting 6 15.6
2014-Oct-23 19:26 312 1 gusting 3 15.6
2014-Oct-23 19:11 318 0 gusting 2 15.6
2014-Oct-23 18:56 316 2 gusting 4 15.6
2014-Oct-23 18:26 319 15.0
2014-Oct-23 18:10 322 0 gusting 1 15.0
2014-Oct-23 17:55 321 0 gusting 3 15.0
2014-Oct-23 17:40 336 15.6
2014-Oct-23 17:25 336 15.6
2014-Oct-23 17:11 310 0 gusting 0 15.6
2014-Oct-23 16:56 311 1 gusting 3 15.6
2014-Oct-23 16:41 307 15.6
2014-Oct-23 16:26 307 0 gusting 2 15.6
2014-Oct-23 16:11 284 0 gusting 1 15.6
2014-Oct-23 15:56 281 15.6
2014-Oct-23 15:41 281 15.6
2014-Oct-23 15:26 281 15.0
2014-Oct-23 15:11 281 15.0
2014-Oct-23 14:56 281 14.4
2014-Oct-23 14:41 281 14.4
2014-Oct-23 14:26 279 0 gusting 1 15.0
2014-Oct-23 14:10 061 15.6
2014-Oct-23 13:55 061 15.6
2014-Oct-23 13:40 075 1 gusting 3 16.1
2014-Oct-23 13:25 221 16.1
2014-Oct-23 13:10 221 16.1
2014-Oct-23 12:55 221 16.7
2014-Oct-23 12:40 219 17.2
2014-Oct-23 12:25 218 0 gusting 4 17.2
2014-Oct-23 12:10 193 0 gusting 2 17.8
2014-Oct-23 11:55 221 0 gusting 2 17.8
2014-Oct-23 11:40 222 0 gusting 3 17.8
2014-Oct-23 11:25 215 17.8
2014-Oct-23 11:09 167 1 gusting 3 18.3
2014-Oct-23 10:54 169 1 gusting 3 18.3
2014-Oct-23 10:43 156 1 gusting 5 18.3
2014-Oct-23 10:24 190 2 gusting 6 18.3
2014-Oct-23 10:09 193 4 gusting 6 18.3
2014-Oct-23 09:54 167 3 gusting 8 18.9
2014-Oct-23 09:39 204 4 gusting 8 18.9
2014-Oct-23 09:24 174 4 gusting 11 18.9
2014-Oct-23 09:09 153 2 gusting 13 18.9
2014-Oct-23 08:54 226 4 gusting 9 18.9
2014-Oct-23 08:40 133 5 gusting 12 18.9
2014-Oct-23 08:24 170 5 gusting 11 18.9
2014-Oct-23 08:09 173 4 gusting 11 19.4
2014-Oct-23 07:54 185 5 gusting 10 20.0
2014-Oct-23 07:39 153 4 gusting 8 21.1
2014-Oct-23 07:25 141 3 gusting 7 21.1
2014-Oct-23 07:11 135 3 gusting 6 21.1
2014-Oct-23 06:55 145 4 gusting 6 21.7
2014-Oct-23 06:39 153 4 gusting 9 21.7
2014-Oct-23 06:24 126 3 gusting 7 21.7
2014-Oct-23 06:09 131 5 gusting 12 21.7
2014-Oct-23 05:54 156 5 gusting 11 22.2
2014-Oct-23 05:39 133 4 gusting 10 22.8
2014-Oct-23 05:24 129 4 gusting 8 22.8
2014-Oct-23 05:09 162 3 gusting 9 23.3
2014-Oct-23 04:54 137 4 gusting 7 23.3
2014-Oct-23 04:39 167 3 gusting 7 23.3
2014-Oct-23 04:24 122 4 gusting 6 23.3
2014-Oct-23 04:09 098 4 gusting 7 23.3
2014-Oct-23 03:54 126 3 gusting 7 22.8
2014-Oct-23 03:39 179 4 gusting 9 22.2
2014-Oct-23 03:23 201 2 gusting 8 21.7
2014-Oct-23 03:08 206 3 gusting 8 21.1